• Em Portugal
  • Lista de países
  • Para 7 dias
  • Temperatura da água
  • Mapas de satélite
  • Mapa do tempo
  • Widgets de tempo
  • user-avatar
    Iniciar Sessão

    Previsão horária em Brzozowka

    Hoje, 15 Agosto, Quarta-feira

    Tempo Temperatura Precipitação Vento Pressão Humidade
    00:00 +17°C° 0 mm 3 m/s 750 mmHg 86%
    01:00 +17°C° 0 mm 3 m/s 750 mmHg 86%
    02:00 +17°C° 0 mm 3 m/s 750 mmHg 87%
    03:00 +17°C° 0 mm 4 m/s 750 mmHg 89%
    04:00 +17°C° 0 mm 4 m/s 751 mmHg 90%
    05:00 +18°C° 0 mm 4 m/s 751 mmHg 87%
    06:00 +19°C° 0 mm 5 m/s 751 mmHg 85%
    07:00 +20°C° 0 mm 5 m/s 752 mmHg 81%
    08:00 +21°C° 0,1 mm 5 m/s 752 mmHg 77%
    09:00 +21°C° 0,1 mm 5 m/s 752 mmHg 73%
    10:00 +22°C° 0,1 mm 6 m/s 753 mmHg 69%
    11:00 +23°C° 0,3 mm 5 m/s 753 mmHg 67%
    12:00 +23°C° 0,3 mm 5 m/s 753 mmHg 65%
    13:00 +23°C° 0 mm 5 m/s 754 mmHg 65%
    14:00 +23°C° 0,5 mm 4 m/s 754 mmHg 66%
    15:00 +23°C° 0,5 mm 4 m/s 754 mmHg 67%
    16:00 +23°C° 0,5 mm 4 m/s 755 mmHg 68%
    17:00 +22°C° 0,1 mm 4 m/s 755 mmHg 73%
    18:00 +20°C° 0,1 mm 3 m/s 755 mmHg 78%
    19:00 +19°C° 0,1 mm 2 m/s 755 mmHg 83%
    20:00 +18°C° 0 mm 2 m/s 756 mmHg 85%
    21:00 +18°C° 0 mm 2 m/s 756 mmHg 88%
    22:00 +17°C° 0 mm 2 m/s 756 mmHg 90%
    23:00 +16°C° 0 mm 2 m/s 756 mmHg 91%

    Amanhã, 16 Agosto, Quinta-feira

    Tempo Temperatura Precipitação Vento Pressão Humidade
    00:00 +16°C° 0 mm 2 m/s 757 mmHg 91%
    01:00 +16°C° 0 mm 2 m/s 757 mmHg 92%
    02:00 +15°C° 0 mm 2 m/s 757 mmHg 92%
    03:00 +15°C° 0 mm 2 m/s 757 mmHg 93%
    04:00 +15°C° 0 mm 2 m/s 757 mmHg 93%
    05:00 +16°C° 0 mm 2 m/s 757 mmHg 88%
    06:00 +17°C° 0 mm 2 m/s 757 mmHg 84%
    07:00 +19°C° 0 mm 1 m/s 758 mmHg 79%
    08:00 +21°C° 0 mm 1 m/s 758 mmHg 72%
    09:00 +23°C° 0 mm 1 m/s 758 mmHg 66%
    10:00 +24°C° 0 mm 1 m/s 758 mmHg 59%
    11:00 +25°C° 0 mm 1 m/s 758 mmHg 55%
    12:00 +26°C° 0 mm 1 m/s 758 mmHg 52%
    13:00 +27°C° 0 mm 1 m/s 757 mmHg 49%
    14:00 +27°C° 0 mm 1 m/s 757 mmHg 49%
    15:00 +27°C° 0 mm 1 m/s 757 mmHg 48%
    16:00 +26°C° 0 mm 1 m/s 757 mmHg 48%
    17:00 +25°C° 0 mm 2 m/s 757 mmHg 54%
    18:00 +24°C° 0 mm 2 m/s 757 mmHg 60%
    19:00 +21°C° 0 mm 2 m/s 757 mmHg 66%
    20:00 +21°C° 0 mm 2 m/s 757 mmHg 69%
    21:00 +20°C° 0 mm 2 m/s 757 mmHg 73%
    22:00 +19°C° 0 mm 3 m/s 757 mmHg 77%
    23:00 +19°C° 0 mm 3 m/s 757 mmHg 78%

    Depois de amanhã, 17 Agosto, Sexta-feira

    Tempo Temperatura Precipitação Vento Pressão Humidade
    00:00 +18°C° 0 mm 3 m/s 757 mmHg 80%
    01:00 +18°C° 0 mm 3 m/s 757 mmHg 81%
    02:00 +18°C° 0 mm 3 m/s 757 mmHg 82%
    03:00 +17°C° 0 mm 2 m/s 757 mmHg 82%
    04:00 +17°C° 0 mm 2 m/s 757 mmHg 83%
    05:00 +18°C° 0 mm 3 m/s 757 mmHg 79%
    06:00 +19°C° 0 mm 3 m/s 757 mmHg 76%
    07:00 +20°C° 0 mm 3 m/s 757 mmHg 73%
    08:00 +22°C° 0 mm 3 m/s 757 mmHg 67%
    09:00 +25°C° 0 mm 3 m/s 757 mmHg 61%
    10:00 +26°C° 0 mm 3 m/s 757 mmHg 55%
    11:00 +27°C° 0 mm 3 m/s 756 mmHg 52%
    12:00 +28°C° 0 mm 3 m/s 756 mmHg 49%
    13:00 +28°C° 0 mm 3 m/s 756 mmHg 47%
    14:00 +28°C° 0 mm 2 m/s 756 mmHg 48%
    15:00 +28°C° 0 mm 2 m/s 755 mmHg 49%
    16:00 +28°C° 0 mm 2 m/s 755 mmHg 51%
    17:00 +27°C° 0 mm 2 m/s 755 mmHg 54%
    18:00 +25°C° 0 mm 2 m/s 755 mmHg 57%
    19:00 +24°C° 0 mm 1 m/s 755 mmHg 61%
    20:00 +24°C° 0 mm 2 m/s 755 mmHg 62%
    21:00 +23°C° 0 mm 2 m/s 755 mmHg 63%
    22:00 +23°C° 0 mm 2 m/s 755 mmHg 64%
    23:00 +21°C° 0 mm 2 m/s 755 mmHg 65%

    18 Agosto, Sábado

    Tempo Temperatura Precipitação Vento Pressão Humidade
    00:00 +21°C° 0 mm 2 m/s 755 mmHg 67%
    01:00 +20°C° 0 mm 3 m/s 755 mmHg 69%
    02:00 +20°C° 0 mm 2 m/s 755 mmHg 70%
    03:00 +20°C° 0 mm 2 m/s 755 mmHg 70%
    04:00 +20°C° 0 mm 2 m/s 755 mmHg 71%
    05:00 +20°C° 0 mm 2 m/s 755 mmHg 71%
    06:00 +20°C° 0 mm 2 m/s 755 mmHg 71%
    07:00 +21°C° 0 mm 2 m/s 755 mmHg 71%
    08:00 +24°C° 0 mm 2 m/s 756 mmHg 65%
    09:00 +26°C° 0 mm 2 m/s 756 mmHg 58%
    10:00 +28°C° 0 mm 2 m/s 756 mmHg 52%
    11:00 +28°C° 0,1 mm 2 m/s 756 mmHg 51%
    12:00 +28°C° 0,1 mm 2 m/s 756 mmHg 50%
    13:00 +28°C° 0,1 mm 2 m/s 756 mmHg 49%
    14:00 +28°C° 0 mm 2 m/s 756 mmHg 51%
    15:00 +28°C° 0 mm 2 m/s 756 mmHg 53%
    16:00 +28°C° 0 mm 2 m/s 756 mmHg 56%
    17:00 +26°C° 0,2 mm 2 m/s 756 mmHg 62%
    18:00 +25°C° 0,2 mm 2 m/s 756 mmHg 69%
    19:00 +23°C° 0,2 mm 2 m/s 756 mmHg 76%
    20:00 +21°C° 0,2 mm 2 m/s 756 mmHg 81%
    21:00 +20°C° 0,2 mm 3 m/s 756 mmHg 86%
    22:00 +19°C° 0,2 mm 3 m/s 757 mmHg 92%
    23:00 +18°C° 0 mm 3 m/s 757 mmHg 92%

    19 Agosto, Domingo

    Tempo Temperatura Precipitação Vento Pressão Humidade
    00:00 +18°C° 0 mm 2 m/s 757 mmHg 92%
    01:00 +17°C° 0 mm 2 m/s 757 mmHg 92%
    02:00 +16°C° 0 mm 2 m/s 757 mmHg 90%
    03:00 +16°C° 0 mm 2 m/s 757 mmHg 89%
    04:00 +15°C° 0 mm 2 m/s 757 mmHg 87%
    05:00 +16°C° 0 mm 2 m/s 758 mmHg 82%
    06:00 +17°C° 0 mm 2 m/s 758 mmHg 77%
    07:00 +18°C° 0 mm 3 m/s 758 mmHg 72%
    08:00 +20°C° 0 mm 3 m/s 758 mmHg 66%
    09:00 +22°C° 0 mm 3 m/s 758 mmHg 60%
    10:00 +23°C° 0 mm 4 m/s 758 mmHg 55%
    11:00 +25°C° 0 mm 4 m/s 758 mmHg 53%
    12:00 +26°C° 0 mm 4 m/s 758 mmHg 51%
    13:00 +27°C° 0 mm 4 m/s 758 mmHg 50%
    14:00 +26°C° 0,1 mm 4 m/s 758 mmHg 54%
    15:00 +25°C° 0,1 mm 3 m/s 758 mmHg 58%
    16:00 +25°C° 0,1 mm 3 m/s 758 mmHg 62%
    17:00 +24°C° 0 mm 3 m/s 758 mmHg 69%
    18:00 +21°C° 0 mm 2 m/s 758 mmHg 76%
    19:00 +20°C° 0 mm 2 m/s 758 mmHg 82%
    20:00 +19°C° 0 mm 2 m/s 758 mmHg 85%
    21:00 +20°C° 0 mm 1 m/s 758 mmHg 88%
    22:00 +19°C° 0 mm 1 m/s 758 mmHg 90%
    23:00 +19°C° 0 mm 1 m/s 758 mmHg 91%

    20 Agosto, Segunda-feira

    Tempo Temperatura Precipitação Vento Pressão Humidade
    00:00 +18°C° 0 mm 1 m/s 758 mmHg 92%
    01:00 +18°C° 0 mm 1 m/s 758 mmHg 92%
    02:00 +18°C° 0 mm 1 m/s 758 mmHg 93%
    03:00 +16°C° 0 mm 1 m/s 758 mmHg 93%
    04:00 +16°C° 0 mm 1 m/s 758 mmHg 94%
    05:00 +18°C° 0 mm 1 m/s 758 mmHg 89%
    06:00 +19°C° 0 mm 1 m/s 758 mmHg 85%
    07:00 +20°C° 0 mm 1 m/s 758 mmHg 81%
    08:00 +21°C° 0 mm 2 m/s 758 mmHg 74%
    09:00 +24°C° 0 mm 2 m/s 758 mmHg 67%
    10:00 +25°C° 0 mm 3 m/s 757 mmHg 60%
    11:00 +26°C° 0 mm 3 m/s 757 mmHg 58%
    12:00 +27°C° 0 mm 3 m/s 757 mmHg 56%
    13:00 +27°C° 0 mm 3 m/s 756 mmHg 54%
    14:00 +28°C° 0,1 mm 3 m/s 756 mmHg 53%
    15:00 +28°C° 0,1 mm 3 m/s 756 mmHg 52%
    16:00 +28°C° 0,1 mm 3 m/s 755 mmHg 50%
    17:00 +27°C° 0,1 mm 3 m/s 755 mmHg 55%
    18:00 +25°C° 0,1 mm 2 m/s 755 mmHg 59%
    19:00 +24°C° 0,1 mm 2 m/s 755 mmHg 64%
    20:00 +23°C° 0 mm 2 m/s 755 mmHg 65%
    21:00 +23°C° 0 mm 2 m/s 755 mmHg 66%
    22:00 +21°C° 0 mm 3 m/s 755 mmHg 67%
    23:00 +21°C° 0 mm 3 m/s 754 mmHg 71%
    Mostrar mais